Total_Precipitation_Accumulation
0.04 0.10 0.15 0.16 0.16 0.14 0.11 0.09 0.20 0.19 0.24 0.24 0.22 0.12 0.09 0.08 0.05 0.05 0.05 0.04 0.04 0.04 0.04 0.04 0.05 0.06 0.12 0.18 0.21 0.29 0.51 0.65 0.54 0.37 0.29 0.23 0.20 0.21 0.26 0.35 0.40 0.53 0.68 0.78
0.07 0.09 0.10 0.12 0.15 0.14 0.08 0.07 0.06 0.08 0.14 0.14 0.18 0.14 0.10 0.09 0.08 0.07 0.07 0.06 0.06 0.06 0.06 0.07 0.08 0.08 0.08 0.12 0.17 0.27 0.45 0.63 0.61 0.46 0.33 0.24 0.22 0.25 0.36 0.42 0.48 0.57 0.63 0.63
0.12 0.13 0.11 0.17 0.16 0.13 0.10 0.09 0.09 0.12 0.15 0.14 0.12 0.12 0.14 0.16 0.14 0.11 0.12 0.12 0.09 0.07 0.07 0.08 0.10 0.12 0.13 0.13 0.15 0.28 0.44 0.57 0.62 0.55 0.45 0.38 0.31 0.34 0.42 0.48 0.54 0.61 0.60 0.60
0.17 0.17 0.23 0.17 0.14 0.16 0.16 0.18 0.18 0.16 0.13 0.15 0.15 0.15 0.17 0.17 0.14 0.11 0.11 0.12 0.14 0.10 0.09 0.09 0.09 0.13 0.16 0.19 0.22 0.31 0.45 0.59 0.64 0.62 0.60 0.60 0.53 0.51 0.54 0.58 0.62 0.66 0.63 0.65
0.22 0.22 0.26 0.22 0.18 0.23 0.26 0.24 0.23 0.24 0.20 0.20 0.20 0.21 0.20 0.17 0.14 0.13 0.12 0.11 0.13 0.14 0.12 0.13 0.14 0.16 0.19 0.23 0.30 0.39 0.49 0.64 0.72 0.75 0.78 0.76 0.74 0.74 0.78 0.82 0.77 0.74 0.76 0.79
0.28 0.32 0.35 0.34 0.28 0.25 0.27 0.38 0.31 0.33 0.30 0.23 0.23 0.32 0.29 0.24 0.24 0.20 0.13 0.12 0.12 0.12 0.13 0.15 0.17 0.19 0.28 0.37 0.49 0.62 0.70 0.79 0.93 1.07 1.16 1.16 1.11 1.04 1.00 1.05 0.97 0.91 0.86 0.86
0.38 0.46 0.38 0.31 0.29 0.23 0.43 0.57 0.42 0.41 0.39 0.34 0.37 0.41 0.36 0.26 0.22 0.19 0.14 0.12 0.13 0.12 0.13 0.16 0.17 0.25 0.38 0.52 0.68 0.76 0.85 0.92 1.09 1.33 1.42 1.32 1.27 1.20 1.13 1.14 1.16 1.14 1.03 1.00
0.53 0.64 0.63 0.35 0.33 0.45 0.60 0.51 0.49 0.45 0.42 0.41 0.39 0.39 0.39 0.32 0.23 0.18 0.15 0.14 0.14 0.15 0.14 0.18 0.24 0.37 0.55 0.68 0.73 0.81 0.96 1.12 1.29 1.47 1.39 1.23 1.37 1.34 1.32 1.38 1.36 1.30 1.24 1.15
0.64 0.74 0.57 0.39 0.44 0.55 0.56 0.52 0.48 0.43 0.38 0.32 0.31 0.35 0.32 0.25 0.20 0.17 0.15 0.15 0.18 0.21 0.26 0.27 0.37 0.56 0.76 0.82 0.88 0.92 0.98 1.12 1.26 1.35 1.44 1.48 1.47 1.43 1.44 1.45 1.43 1.32 1.27 1.21
0.65 0.70 0.61 0.50 0.46 0.43 0.39 0.36 0.37 0.32 0.27 0.23 0.22 0.22 0.21 0.19 0.17 0.16 0.14 0.15 0.18 0.24 0.33 0.43 0.54 0.68 0.79 0.82 0.83 0.83 0.84 0.88 1.00 1.19 1.31 1.42 1.61 1.64 1.59 1.50 1.47 1.42 1.32 1.25
0.64 0.75 0.70 0.64 0.50 0.38 0.35 0.29 0.29 0.29 0.23 0.22 0.21 0.20 0.18 0.17 0.16 0.15 0.14 0.18 0.24 0.31 0.40 0.48 0.61 0.72 0.74 0.77 0.85 0.91 0.90 0.90 0.94 1.04 1.23 1.34 1.48 1.56 1.54 1.53 1.35 1.27 1.17 1.11
0.60 0.57 0.58 0.63 0.52 0.35 0.31 0.32 0.34 0.36 0.31 0.26 0.22 0.24 0.22 0.18 0.16 0.14 0.14 0.19 0.29 0.40 0.48 0.55 0.66 0.79 0.84 0.91 1.00 1.07 1.06 1.00 1.00 1.06 1.21 1.31 1.38 1.35 1.17 1.10 0.91 0.80 0.77 0.73
0.34 0.36 0.43 0.46 0.44 0.37 0.33 0.35 0.39 0.41 0.35 0.26 0.20 0.19 0.19 0.16 0.14 0.15 0.16 0.22 0.34 0.47 0.56 0.62 0.69 0.81 0.94 1.06 1.15 1.24 1.21 1.10 1.03 0.99 1.05 1.12 1.24 1.38 1.42 1.19 0.94 0.76 0.65 0.56
0.31 0.35 0.41 0.38 0.39 0.33 0.31 0.34 0.31 0.26 0.24 0.20 0.17 0.16 0.17 0.14 0.13 0.15 0.19 0.27 0.35 0.44 0.52 0.59 0.68 0.76 0.89 1.04 1.13 1.18 1.18 1.07 0.98 0.98 1.01 1.04 1.11 1.23 1.40 1.43 1.22 0.91 0.76 0.64
0.33 0.32 0.35 0.33 0.32 0.30 0.29 0.27 0.26 0.25 0.23 0.22 0.18 0.16 0.13 0.12 0.14 0.18 0.23 0.32 0.43 0.49 0.52 0.59 0.70 0.76 0.91 1.07 1.14 1.11 1.07 1.00 0.92 0.95 0.98 0.97 1.03 1.11 1.21 1.29 1.22 1.06 0.88 0.70
0.39 0.33 0.32 0.32 0.29 0.26 0.25 0.22 0.19 0.17 0.16 0.16 0.14 0.12 0.11 0.12 0.15 0.19 0.28 0.45 0.67 0.70 0.66 0.68 0.72 0.76 0.94 1.12 1.16 1.13 1.03 0.85 0.79 0.84 0.89 0.91 0.98 1.04 1.08 1.14 1.14 1.08 0.96 0.73
0.39 0.37 0.34 0.31 0.28 0.25 0.21 0.18 0.17 0.16 0.15 0.16 0.14 0.12 0.11 0.15 0.21 0.29 0.42 0.54 0.64 0.66 0.68 0.75 0.72 0.72 0.88 1.04 1.10 1.07 0.98 0.83 0.63 0.62 0.71 0.78 0.87 0.95 0.99 1.00 1.04 1.03 0.88 0.62
0.31 0.27 0.23 0.22 0.24 0.24 0.22 0.18 0.15 0.14 0.14 0.15 0.16 0.17 0.19 0.28 0.42 0.56 0.67 0.71 0.68 0.59 0.59 0.64 0.61 0.64 0.80 0.86 0.91 0.97 0.92 0.84 0.68 0.60 0.63 0.68 0.76 0.87 0.89 0.87 0.87 0.86 0.76 0.57
0.19 0.15 0.13 0.12 0.11 0.13 0.14 0.13 0.12 0.12 0.11 0.13 0.18 0.24 0.30 0.41 0.56 0.70 0.78 0.88 0.92 0.80 0.64 0.56 0.52 0.57 0.71 0.73 0.76 0.88 0.88 0.80 0.69 0.62 0.64 0.62 0.66 0.77 0.78 0.75 0.73 0.68 0.62 0.55
0.14 0.12 0.10 0.08 0.07 0.07 0.07 0.07 0.09 0.10 0.11 0.16 0.22 0.29 0.38 0.53 0.71 0.83 0.90 0.93 0.96 0.92 0.74 0.60 0.53 0.54 0.60 0.66 0.73 0.77 0.80 0.76 0.64 0.60 0.61 0.66 0.67 0.70 0.66 0.62 0.60 0.56 0.52 0.51
0.10 0.09 0.08 0.07 0.05 0.04 0.04 0.05 0.08 0.13 0.17 0.22 0.31 0.40 0.51 0.65 0.79 0.95 1.15 1.16 0.94 0.83 0.71 0.61 0.55 0.53 0.55 0.62 0.68 0.74 0.77 0.78 0.68 0.58 0.57 0.60 0.62 0.63 0.61 0.59 0.54 0.48 0.48 0.48
0.05 0.05 0.05 0.04 0.05 0.05 0.05 0.07 0.12 0.20 0.29 0.35 0.38 0.46 0.60 0.72 0.86 1.00 1.09 1.25 1.14 0.98 0.73 0.58 0.51 0.47 0.47 0.53 0.58 0.67 0.70 0.73 0.67 0.57 0.53 0.53 0.54 0.61 0.63 0.58 0.52 0.46 0.45 0.47
0.04 0.04 0.03 0.04 0.05 0.06 0.07 0.09 0.16 0.29 0.42 0.51 0.54 0.60 0.74 0.79 0.93 1.24 1.31 1.17 1.11 1.00 0.70 0.55 0.51 0.44 0.39 0.42 0.51 0.59 0.62 0.63 0.62 0.51 0.45 0.44 0.47 0.54 0.59 0.57 0.55 0.47 0.45 0.43
0.05 0.04 0.04 0.05 0.06 0.08 0.12 0.17 0.23 0.34 0.43 0.48 0.48 0.55 0.72 0.80 0.82 0.89 1.10 1.21 1.16 1.00 0.73 0.59 0.51 0.42 0.37 0.36 0.49 0.60 0.62 0.62 0.60 0.48 0.39 0.38 0.43 0.51 0.53 0.53 0.52 0.47 0.44 0.41
0.05 0.05 0.05 0.06 0.10 0.18 0.27 0.36 0.45 0.50 0.53 0.54 0.47 0.45 0.56 0.71 0.83 0.80 0.84 0.96 1.08 0.97 0.80 0.67 0.57 0.51 0.41 0.39 0.48 0.58 0.62 0.60 0.53 0.46 0.43 0.47 0.52 0.55 0.52 0.49 0.48 0.44 0.44 0.44
0.04 0.04 0.05 0.07 0.13 0.26 0.41 0.58 0.73 0.76 0.77 0.76 0.63 0.50 0.51 0.57 0.63 0.68 0.74 0.80 0.86 0.87 0.79 0.74 0.64 0.58 0.52 0.50 0.52 0.58 0.64 0.66 0.58 0.52 0.54 0.60 0.60 0.57 0.55 0.49 0.44 0.43 0.42 0.40
0.04 0.05 0.06 0.09 0.18 0.31 0.48 0.64 0.81 0.86 0.86 0.89 0.77 0.57 0.49 0.52 0.54 0.59 0.66 0.74 0.76 0.77 0.77 0.73 0.66 0.58 0.52 0.52 0.54 0.56 0.61 0.64 0.60 0.59 0.58 0.58 0.58 0.58 0.55 0.50 0.47 0.46 0.45 0.41